This demonstration page uses our WeatherBlox Daily Observations layout. Learn more.

Left ArrowRight Arrow

34.74481, -87.66753

Hourly Observations for March 25, 2022

Temp ( °F °C ) Dew Point ( °F °C ) Humidity (%) Winds ( mph kmh ) Pressure ( in mb ) Visibility ( mi km ) Precip ( " mm )
12:53 am 00:53 Mostly Clear 48 8.9 36 2.2 63 63 WNW 3 6 29.92 1013 10 16 0.00 0.00
1:53 am 01:53 Clear 44 6.7 36 2.2 73 73 Calm 29.92 1013 10 16 0.00 0.00
2:53 am 02:53 Cloudy 45 7.2 36 2.2 71 71 Calm 29.91 1013 10 16 0.00 0.00
3:53 am 03:53 Cloudy 46 7.8 38 3.3 73 73 Calm 29.91 1013 10 16 0.00 0.00
4:53 am 04:53 Cloudy 46 7.8 40 4.4 79 79 Calm 29.92 1013 10 16 0.00 0.00
5:53 am 05:53 Cloudy 47 8.3 40 4.4 77 77 Calm 29.93 1014 10 16 0.00 0.00
6:53 am 06:53 Cloudy 46 7.8 41 5 83 83 WSW 3 6 29.95 1014 10 16 0.00 0.00
7:53 am 07:53 Cloudy 48 8.9 41 5 77 77 WNW 5 7 29.97 1015 10 16 0.00 0.00
8:53 am 08:53 Cloudy 50 10 39 3.9 66 66 WNW 8 13 29.99 1016 10 16 0.00 0.00
9:53 am 09:53 Sunny 52 11.1 38 3.3 59 59 WNW 8 13 30.00 1016 10 16 0.00 0.00
10:53 am 10:53 Mostly Cloudy 54 12.2 39 3.9 57 57 WNW 12 19 30.00 1016 10 16 0.00 0.00
11:53 am 11:53 Mostly Cloudy 55 12.8 39 3.9 55 55 WNW 13 20 30.00 1016 10 16 0.00 0.00
12:53 pm 12:53 Cloudy 56 13.3 40 4.4 55 55 NW 14 22 30.01 1016 10 16 0.00 0.00
1:53 pm 13:53 Mostly Cloudy 57 13.9 40 4.4 53 53 NW 13 20 29.99 1016 10 16 0.00 0.00
2:53 pm 14:53 Mostly Cloudy 59 15 40 4.4 49 49 W 16 26 29.99 1016 10 16 0.00 0.00
3:53 pm 15:53 Sunny 59 15 40 4.4 49 49 WNW 15 24 29.97 1015 10 16 0.00 0.00
4:53 pm 16:53 Sunny 60 15.6 39 3.9 46 46 WNW 13 20 29.97 1015 10 16 0.00 0.00
5:53 pm 17:53 Sunny 59 15 39 3.9 48 48 WNW 12 19 29.97 1015 10 16 0.00 0.00
6:53 pm 18:53 Sunny 57 13.9 39 3.9 51 51 WNW 10 17 29.98 1015 10 16 0.00 0.00
7:53 pm 19:53 Mostly Clear 53 11.7 39 3.9 59 59 WNW 7 11 29.99 1016 10 16 0.00 0.00
8:53 pm 20:53 Clear 53 11.7 38 3.3 57 57 WNW 5 7 30.00 1016 10 16 0.00 0.00
9:53 pm 21:53 Clear 48 8.9 40 4.4 74 74 SW 3 6 30.01 1016 10 16 0.00 0.00
10:53 pm 22:53 Clear 50 10 39 3.9 66 66 WSW 3 6 29.99 1016 10 16 0.00 0.00
11:53 pm 23:53 Clear 48 8.9 39 3.9 71 71 W 7 11 29.99 1016 10 16 0.00 0.00

Powered by AerisWeather